Location: Burgwalden
(48.2830°N, 10.7576°E)
Time: 02:27:06
(UTC+00:00)

Resurs 1-4 Rocket - Pass Details

Date: 26 September 2023
Orbit: 800 x 812 km, 98.7° (Epoch: 04 December)

Event Time Altitude Azimuth Distance (km) Brightness Sun altitude
Rises 03:18:16 0° 359° (N) 3,322 5.6 -18.8°
Reaches altitude 10° 03:22:23 10° 327° (NNW) 2,386 4.4 -18.2°
Maximum altitude 03:23:58 11° 310° (NW) 2,291 4.2 -17.9°
Enters shadow 03:24:11 11° 307° (NW) 2,293 4.1 -17.9°
